GW7345 Weather Reports


Display with metric or nautical units.
time (UTC)temp
F
wind
direction
speed
MPH
gust
MPH
rain 1hr
in
rain 24hr
in
rain mn
in
humidity
%
barometer
mb
20260510225016 84 296 1.0 3.0 0.00 0.00 0.00 35 1014.8
20260510224537 85 235 1.0 3.0 0.00 0.00 0.00 34 1014.8
20260510224016 85 231 1.0 4.0 0.00 0.00 0.00 36 1014.8
20260510223517 85 279 1.0 4.0 0.00 0.00 0.00 37 1014.8
20260510223138 84 195 0.0 4.0 0.00 0.00 0.00 36 1014.8
20260510222517 84 293 1.0 4.0 0.00 0.00 0.00 36 1014.8
20260510222017 84 281 2.0 6.0 0.00 0.00 0.00 37 1014.8
20260510221517 84 195 2.0 8.0 0.00 0.00 0.00 37 1014.7
20260510221017 84 264 1.0 6.0 0.00 0.00 0.00 36 1014.7
20260510220517 84 264 1.0 5.0 0.00 0.00 0.00 36 1014.7
20260510220017 84 257 2.0 6.0 0.00 0.00 0.00 36 1014.7
20260510215517 84 245 1.0 6.0 0.00 0.00 0.00 37 1014.6
20260510215018 84 179 4.0 9.0 0.00 0.00 0.00 37 1014.6
20260510214518 85 190 2.0 6.0 0.00 0.00 0.00 37 1014.6
20260510214018 85 212 2.0 6.0 0.00 0.00 0.00 36 1014.6
20260510213517 84 209 1.0 6.0 0.00 0.00 0.00 36 1014.6
20260510213018 84 278 2.0 5.0 0.00 0.00 0.00 37 1014.6
20260510212517 84 208 2.0 6.0 0.00 0.00 0.00 37 1014.5
20260510212015 84 188 3.0 6.0 0.00 0.00 0.00 37 1014.4
20260510211518 84 180 4.0 9.0 0.00 0.00 0.00 37 1014.4
20260510211018 84 199 2.0 6.0 0.00 0.00 0.00 38 1014.4
20260510210515 85 190 4.0 8.0 0.00 0.00 0.00 37 1014.4
20260510210015 85 198 2.0 6.0 0.00 0.00 0.00 38 1014.4
20260510205518 85 240 1.0 4.0 0.00 0.00 0.00 38 1014.4
20260510205018 85 214 1.0 5.0 0.00 0.00 0.00 37 1014.4
20260510204516 85 234 1.0 5.0 0.00 0.00 0.00 38 1014.5
20260510204036 85 206 2.0 4.0 0.00 0.00 0.00 37 1014.5
20260510203515 85 200 3.0 7.0 0.00 0.00 0.00 37 1014.5
20260510203015 85 302 1.0 4.0 0.00 0.00 0.00 38 1014.6
20260510202536 85 296 1.0 3.0 0.00 0.00 0.00 38 1014.5
20260510202016 84 183 2.0 4.0 0.00 0.00 0.00 39 1014.6
20260510201516 84 232 1.0 3.0 0.00 0.00 0.00 38 1014.6
20260510201016 84 300 2.0 6.0 0.00 0.00 0.00 37 1014.7
20260510200516 84 260 2.0 5.0 0.00 0.00 0.00 38 1014.7
20260510200036 84 289 2.0 4.0 0.00 0.00 0.00 37 1014.8
20260510195516 84 273 1.0 4.0 0.00 0.00 0.00 39 1014.8
20260510195016 84 280 2.0 6.0 0.00 0.00 0.00 39 1014.9
20260510194516 84 203 2.0 4.0 0.00 0.00 0.00 38 1014.9
20260510194016 84 220 1.0 5.0 0.00 0.00 0.00 39 1014.9
20260510193517 84 296 1.0 4.0 0.00 0.00 0.00 38 1014.9
20260510193017 84 286 1.0 5.0 0.00 0.00 0.00 38 1014.9
20260510192516 84 292 2.0 4.0 0.00 0.00 0.00 39 1014.9
20260510192016 83 283 1.0 5.0 0.00 0.00 0.00 40 1015.0
20260510191516 84 276 2.0 7.0 0.00 0.00 0.00 39 1015.0
20260510191016 84 188 2.0 5.0 0.00 0.00 0.00 39 1015.0
20260510190517 83 190 1.0 4.0 0.00 0.00 0.00 42 1015.0
20260510190016 83 228 1.0 5.0 0.00 0.00 0.00 41 1015.1
20260510185517 82 224 1.0 4.0 0.00 0.00 0.00 41 1015.1
20260510185017 82 64 2.0 5.0 0.00 0.00 0.00 41 1015.1
20260510184518 82 279 2.0 4.0 0.00 0.00 0.00 40 1015.2
20260510184017 82 287 2.0 6.0 0.00 0.00 0.00 40 1015.2
20260510183518 83 305 2.0 7.0 0.00 0.00 0.00 40 1015.3
20260510183017 83 81 1.0 3.0 0.00 0.00 0.00 41 1015.3
20260510182518 83 280 1.0 5.0 0.00 0.00 0.00 42 1015.3
20260510182057 83 196 1.0 5.0 0.00 0.00 0.00 40 1015.4
20260510181517 83 255 1.0 5.0 0.00 0.00 0.00 44 1015.5
20260510181018 82 199 1.0 5.0 0.00 0.00 0.00 44 1015.5
20260510180518 82 221 2.0 5.0 0.00 0.00 0.00 44 1015.5
20260510180018 82 108 2.0 6.0 0.00 0.00 0.00 45 1015.5
20260510175538 82 269 1.0 4.0 0.00 0.00 0.00 45 1015.6
20260510175019 82 145 1.0 5.0 0.00 0.00 0.00 46 1015.5
20260510174518 81 197 1.0 4.0 0.00 0.00 0.00 47 1015.6
20260510174015 81 192 3.0 7.0 0.00 0.00 0.00 47 1015.7
20260510173515 80 198 2.0 6.0 0.00 0.00 0.00 47 1015.8
20260510173035 79 193 2.0 5.0 0.00 0.00 0.00 49 1015.8
20260510172517 78 190 2.0 5.0 0.00 0.00 0.00 48 1015.9
20260510172015 79 178 3.0 5.0 0.00 0.00 0.00 47 1015.9
20260510171515 81 143 3.0 6.0 0.00 0.00 0.00 47 1016.0
20260510171015 81 116 1.0 4.0 0.00 0.00 0.00 46 1016.1
20260510170515 80 226 1.0 6.0 0.00 0.00 0.00 47 1016.1
20260510170015 80 82 1.0 5.0 0.00 0.00 0.00 47 1016.1
20260510165516 80 90 2.0 5.0 0.00 0.00 0.00 47 1016.2
20260510165036 80 82 1.0 6.0 0.00 0.00 0.00 47 1016.2
20260510164516 81 71 2.0 6.0 0.00 0.00 0.00 46 1016.1
20260510164016 81 219 1.0 6.0 0.00 0.00 0.00 47 1016.1
20260510163516 81 182 1.0 4.0 0.00 0.00 0.00 47 1016.1
20260510163016 81 298 1.0 5.0 0.00 0.00 0.00 48 1016.0
20260510162516 80 289 1.0 4.0 0.00 0.00 0.00 48 1016.1
20260510162016 80 84 1.0 6.0 0.00 0.00 0.00 49 1016.2
20260510161536 79 96 2.0 4.0 0.00 0.00 0.00 50 1016.3
20260510161016 79 139 1.0 5.0 0.00 0.00 0.00 50 1016.3
20260510160516 79 230 1.0 4.0 0.00 0.00 0.00 49 1016.3
20260510160017 79 198 2.0 6.0 0.00 0.00 0.00 50 1016.3
20260510155517 79 248 2.0 6.0 0.00 0.00 0.00 51 1016.3
20260510155017 78 167 1.0 4.0 0.00 0.00 0.00 52 1016.2
20260510154537 78 100 2.0 4.0 0.00 0.00 0.00 52 1016.2
20260510154017 78 275 1.0 4.0 0.00 0.00 0.00 51 1016.3
20260510153517 78 282 1.0 4.0 0.00 0.00 0.00 53 1016.2
20260510153017 78 261 2.0 5.0 0.00 0.00 0.00 52 1016.3
20260510152517 78 273 2.0 5.0 0.00 0.00 0.00 52 1016.2
20260510152017 77 251 1.0 5.0 0.00 0.00 0.00 53 1016.2
20260510151537 77 259 2.0 5.0 0.00 0.00 0.00 54 1016.2
20260510151028 77 236 1.0 4.0 0.00 0.00 0.00 55 1016.2
20260510150517 77 253 1.0 4.0 0.00 0.00 0.00 55 1016.2
20260510150017 77 275 1.0 5.0 0.00 0.00 0.00 54 1016.2
20260510145518 77 278 1.0 4.0 0.00 0.00 0.00 56 1016.3
20260510145017 77 261 2.0 5.0 0.00 0.00 0.00 57 1016.3
20260510144517 77 229 2.0 5.0 0.00 0.00 0.00 57 1016.2
20260510144017 77 251 1.0 3.0 0.00 0.00 0.00 58 1016.2
20260510143538 76 170 1.0 4.0 0.00 0.00 0.00 59 1016.1
20260510143018 76 134 1.0 4.0 0.00 0.00 0.00 60 1016.0
20260510142518 76 239 1.0 4.0 0.00 0.00 0.00 59 1016.1
20260510142015 76 224 1.0 3.0 0.00 0.00 0.00 60 1016.1
20260510141535 75 148 1.0 5.0 0.00 0.00 0.00 62 1016.1
20260510141018 75 221 2.0 7.0 0.00 0.00 0.00 64 1016.1
20260510140555 75 261 2.0 5.0 0.00 0.00 0.00 64 1016.1
20260510140018 75 209 1.0 4.0 0.00 0.00 0.00 65 1016.2
20260510135535 75 203 2.0 6.0 0.00 0.00 0.00 66 1016.3
20260510135015 75 203 0.0 3.0 0.00 0.00 0.00 68 1016.3
20260510134515 75 139 0.0 3.0 0.00 0.00 0.00 69 1016.2
20260510134017 74 88 1.0 5.0 0.00 0.00 0.00 68 1016.1
20260510133515 73 189 1.0 3.0 0.00 0.00 0.00 71 1016.1
20260510133056 73 173 1.0 4.0 0.00 0.00 0.00 71 1016.1
20260510132516 73 189 1.0 5.0 0.00 0.00 0.00 72 1016.2
20260510132016 72 152 1.0 5.0 0.00 0.00 0.00 73 1016.2
20260510131516 71 160 0.0 3.0 0.00 0.00 0.00 75 1016.2
20260510131036 71 241 0.0 3.0 0.00 0.00 0.00 76 1016.2
20260510130516 70 194 0.0 3.0 0.00 0.00 0.00 77 1016.1
20260510130016 69 156 1.0 3.0 0.00 0.00 0.00 78 1016.0
20260510125516 69 238 0.0 4.0 0.00 0.00 0.00 80 1016.0
20260510125016 69 224 1.0 4.0 0.00 0.00 0.00 81 1015.9
20260510124536 68 264 0.0 2.0 0.00 0.00 0.00 83 1015.9
20260510124016 67 182 0.0 2.0 0.00 0.00 0.00 85 1015.8
20260510123516 67 220 1.0 3.0 0.00 0.00 0.00 86 1015.8
20260510123016 66 295 0.0 1.0 0.00 0.00 0.00 87 1015.8
20260510122516 65 181 0.0 3.0 0.00 0.00 0.00 89 1015.7
20260510122017 65 196 0.0 3.0 0.00 0.00 0.00 90 1015.7
20260510121517 64 182 1.0 3.0 0.00 0.00 0.00 91 1015.6
20260510121017 64 183 1.0 3.0 0.00 0.00 0.00 92 1015.6
20260510120517 63 172 1.0 3.0 0.00 0.00 0.00 93 1015.5
20260510120017 62 187 1.0 3.0 0.00 0.00 0.00 95 1015.4
20260510115517 62 183 1.0 3.0 0.00 0.00 0.00 96 1015.3
20260510115037 61 180 0.0 2.0 0.00 0.00 0.00 98 1015.1
20260510114517 60 0.0 0.0 0.00 0.00 0.00 99 1015.1
20260510114017 60 0.0 0.0 0.00 0.00 0.00 99 1015.0
20260510113529 59 0.0 0.0 0.00 0.01 0.00 99 1014.9
20260510113029 58 0.0 0.0 0.00 0.02 0.00 99 1014.9
20260510112529 58 171 0.0 0.0 0.00 0.02 0.00 99 1014.8
20260510112029 58 171 0.0 1.0 0.00 0.02 0.00 99 1014.8
20260510111529 58 206 1.0 2.0 0.00 0.02 0.00 99 1014.8
20260510111030 58 179 0.0 2.0 0.00 0.02 0.00 99 1014.7
20260510110529 58 168 0.0 1.0 0.00 0.02 0.00 99 1014.5
20260510110030 58 0.0 0.0 0.00 0.02 0.00 99 1014.5
20260510105530 58 0.0 0.0 0.00 0.02 0.00 99 1014.5
20260510105030 58 0.0 0.0 0.00 0.02 0.00 99 1014.5
20260510104530 58 0.0 0.0 0.00 0.02 0.00 99 1014.5
20260510104030 58 172 0.0 2.0 0.00 0.02 0.00 99 1014.4
20260510103530 58 180 0.0 1.0 0.00 0.02 0.00 99 1014.3
20260510103030 58 179 1.0 2.0 0.00 0.02 0.00 99 1014.2
20260510102530 58 0.0 0.0 0.00 0.02 0.00 99 1014.1
20260510102030 59 0.0 0.0 0.00 0.02 0.00 99 1014.1
20260510101550 59 0.0 0.0 0.00 0.02 0.00 99 1014.1
20260510101030 59 181 0.0 2.0 0.00 0.02 0.00 99 1014.0
20260510100531 59 180 1.0 2.0 0.00 0.02 0.00 99 1013.9
20260510100050 59 175 0.0 2.0 0.00 0.02 0.00 99 1013.8
20260510095530 59 166 0.0 2.0 0.00 0.02 0.00 99 1013.7
20260510095031 59 0.0 0.0 0.00 0.02 0.00 99 1013.6
20260510094530 59 0.0 0.0 0.00 0.02 0.00 99 1013.6
20260510094031 59 185 0.0 1.0 0.00 0.02 0.00 99 1013.6
20260510093531 60 0.0 0.0 0.00 0.02 0.00 99 1013.5
20260510093051 60 172 1.0 3.0 0.00 0.02 0.00 99 1013.5
20260510092531 60 165 1.0 2.0 0.00 0.02 0.00 99 1013.4
20260510092031 60 0.0 0.0 0.00 0.02 0.00 100 1013.4
20260510091531 60 0.0 0.0 0.00 0.02 0.00 100 1013.4
20260510091036 60 169 0.0 2.0 0.00 0.02 0.00 99 1013.3
20260510090532 60 178 2.0 4.0 0.00 0.02 0.00 100 1013.3
20260510090032 60 168 1.0 3.0 0.00 0.02 0.00 99 1013.1
20260510085532 60 189 1.0 2.0 0.00 0.02 0.00 99 1013.0
20260510085052 60 169 0.0 1.0 0.00 0.02 0.00 99 1013.0
20260510084551 60 172 1.0 2.0 0.00 0.02 0.00 99 1013.0
20260510084032 61 180 0.0 1.0 0.00 0.02 0.00 99 1012.9
20260510083532 61 182 0.0 2.0 0.00 0.02 0.00 98 1012.8
20260510083052 61 179 0.0 1.0 0.00 0.02 0.00 98 1012.7
20260510082532 61 176 0.0 0.0 0.00 0.02 0.00 98 1012.6
20260510082017 61 167 1.0 2.0 0.00 0.02 0.00 98 1012.6
20260510081517 61 173 0.0 2.0 0.00 0.02 0.00 98 1012.5
20260510081017 61 144 0.0 2.0 0.00 0.02 0.00 98 1012.6
20260510080557 61 0.0 0.0 0.00 0.02 0.00 97 1012.5
20260510080017 61 293 0.0 0.0 0.00 0.02 0.00 98 1012.5
20260510075517 61 212 1.0 2.0 0.00 0.02 0.00 97 1012.5
20260510075017 61 151 0.0 2.0 0.00 0.02 0.00 97 1012.5
20260510074518 61 306 0.0 1.0 0.00 0.02 0.00 97 1012.5
20260510074018 61 233 0.0 1.0 0.00 0.02 0.00 97 1012.6
20260510073558 62 181 0.0 3.0 0.00 0.02 0.00 97 1012.5
20260510073018 62 174 1.0 3.0 0.00 0.02 0.00 97 1012.5
20260510072515 62 182 0.0 3.0 0.00 0.02 0.00 97 1012.4
20260510072018 62 176 0.0 3.0 0.00 0.02 0.00 97 1012.4
20260510071518 62 247 0.0 2.0 0.00 0.02 0.00 97 1012.4
20260510071015 62 178 1.0 4.0 0.00 0.02 0.00 97 1012.4
20260510070516 62 162 0.0 2.0 0.00 0.02 0.00 97 1012.4
20260510070015 62 167 0.0 1.0 0.00 0.02 0.00 97 1012.5
20260510065515 62 206 0.0 2.0 0.00 0.02 0.00 97 1012.5
20260510065015 62 172 0.0 3.0 0.00 0.02 0.00 97 1012.6
20260510064515 62 174 0.0 2.0 0.00 0.02 0.00 97 1012.7
20260510064016 62 190 0.0 2.0 0.00 0.02 0.00 97 1012.7
20260510063516 62 286 0.0 1.0 0.00 0.02 0.00 97 1012.7
20260510063016 62 130 0.0 1.0 0.00 0.02 0.00 97 1012.6
20260510062516 62 173 0.0 4.0 0.00 0.02 0.00 97 1012.6
20260510062016 62 199 1.0 3.0 0.00 0.02 0.00 97 1012.5
20260510061516 62 175 1.0 3.0 0.00 0.02 0.00 97 1012.5
20260510061016 61 178 2.0 5.0 0.00 0.02 0.00 97 1012.6
20260510060516 61 172 2.0 4.0 0.00 0.02 0.00 99 1012.6
20260510060016 61 200 0.0 2.0 0.00 0.02 0.00 99 1012.6
20260510055536 61 213 0.0 1.0 0.00 0.02 0.00 99 1012.6
20260510055016 61 180 0.0 3.0 0.00 0.02 0.00 99 1012.7
20260510054516 61 180 0.0 2.0 0.00 0.02 0.00 99 1012.7
20260510054036 61 187 0.0 1.0 0.00 0.02 0.00 99 1012.7
20260510053516 61 183 0.0 0.0 0.00 0.02 0.00 99 1012.8
20260510053016 61 177 0.0 1.0 0.00 0.02 0.00 98 1012.8
20260510052517 61 220 0.0 1.0 0.00 0.02 0.00 98 1012.7
20260510052016 61 183 0.0 2.0 0.00 0.02 0.00 98 1012.7
20260510051517 61 175 0.0 1.0 0.00 0.02 0.00 98 1012.7
20260510051017 61 164 0.0 0.0 0.00 0.02 0.00 98 1012.7
20260510050537 61 203 0.0 1.0 0.00 0.02 0.00 97 1012.8
20260510050017 61 172 0.0 1.0 0.00 0.02 0.00 97 1012.9
20260510045517 62 171 0.0 1.0 0.00 0.02 0.00 96 1012.8
20260510045017 62 189 0.0 2.0 0.00 0.02 0.00 96 1012.7
20260510044517 62 206 0.0 2.0 0.00 0.02 0.00 95 1012.7
20260510044017 62 176 0.0 2.0 0.00 0.02 0.00 94 1012.8
20260510043517 62 195 0.0 2.0 0.00 0.02 0.00 94 1012.8
20260510043017 63 200 0.0 2.0 0.00 0.02 0.00 93 1012.7
20260510042540 63 0.0 0.0 0.00 0.02 0.00 93 1012.7
20260510042021 63 177 0.0 2.0 0.00 0.02 0.00 92 1012.6
20260510041518 63 167 0.0 2.0 0.00 0.02 0.00 92 1012.7
20260510041015 63 180 0.0 2.0 0.00 0.02 0.00 92 1012.8
20260510040515 64 0.0 0.0 0.00 0.02 0.00 91 1012.8
20260510040035 64 191 0.0 3.0 0.00 0.02 0.00 91 1012.9
20260510035535 64 0.0 0.0 0.00 0.02 0.02 90 1012.9
20260510035015 64 192 0.0 3.0 0.00 0.02 0.02 90 1012.9
20260510034515 64 175 1.0 4.0 0.00 0.02 0.02 90 1012.8
20260510034015 64 191 0.0 3.0 0.00 0.02 0.02 89 1012.9
20260510033536 64 183 1.0 4.0 0.00 0.02 0.02 89 1012.9
20260510033016 65 267 0.0 2.0 0.00 0.02 0.02 89 1012.9
20260510032516 65 218 1.0 3.0 0.00 0.02 0.02 89 1012.9
20260510032016 65 237 0.0 3.0 0.00 0.02 0.02 89 1012.9
20260510031516 64 258 0.0 3.0 0.00 0.02 0.02 89 1012.9
20260510031016 65 191 1.0 3.0 0.00 0.02 0.02 89 1012.9
20260510030536 65 194 0.0 2.0 0.00 0.02 0.02 89 1013.0
20260510030016 65 190 1.0 2.0 0.00 0.02 0.02 88 1012.9
20260510025517 65 219 0.0 2.0 0.00 0.02 0.02 88 1012.9
20260510025016 65 203 0.0 2.0 0.00 0.02 0.02 87 1012.9
20260510024516 65 201 0.0 2.0 0.00 0.02 0.02 87 1012.9
20260510024016 65 249 0.0 2.0 0.00 0.02 0.02 87 1012.9
20260510023517 65 218 0.0 3.0 0.00 0.02 0.02 87 1012.8
20260510023017 65 218 1.0 4.0 0.00 0.02 0.02 87 1012.8
20260510022517 65 208 1.0 4.0 0.00 0.02 0.02 86 1012.7
20260510022017 66 223 0.0 3.0 0.00 0.02 0.02 86 1012.7
20260510021537 66 190 1.0 4.0 0.00 0.02 0.02 86 1012.7
20260510021017 66 170 0.0 5.0 0.00 0.02 0.02 86 1012.7
20260510020517 66 195 0.0 4.0 0.00 0.02 0.02 85 1012.6
20260510020017 66 194 1.0 4.0 0.00 0.02 0.02 85 1012.5
20260510015517 66 187 2.0 5.0 0.00 0.02 0.02 85 1012.5
20260510015017 66 188 3.0 5.0 0.00 0.02 0.02 85 1012.4
20260510014537 66 189 3.0 7.0 0.00 0.02 0.02 85 1012.4
20260510014018 66 191 2.0 4.0 0.00 0.02 0.02 85 1012.3
20260510013517 66 196 1.0 4.0 0.00 0.02 0.02 85 1012.3
20260510013018 65 191 2.0 4.0 0.00 0.02 0.02 85 1012.2
20260510012518 65 187 1.0 3.0 0.00 0.02 0.02 85 1012.1
20260510012017 66 181 0.0 1.0 0.00 0.02 0.02 85 1012.0
20260510011518 66 183 0.0 2.0 0.00 0.02 0.02 85 1011.8
20260510011018 66 193 0.0 3.0 0.00 0.02 0.02 84 1011.8
20260510010518 66 199 1.0 4.0 0.00 0.02 0.02 83 1011.8
20260510010015 66 200 0.0 3.0 0.00 0.02 0.02 83 1011.7
20260510005518 67 207 1.0 3.0 0.00 0.02 0.02 83 1011.7
20260510005018 67 313 0.0 2.0 0.00 0.02 0.02 82 1011.6
20260510004518 67 195 0.0 3.0 0.00 0.02 0.02 82 1011.5
20260510004015 67 202 1.0 3.0 0.00 0.02 0.02 81 1011.4
20260510003515 67 201 1.0 3.0 0.00 0.02 0.02 81 1011.4
20260510003015 68 198 1.0 3.0 0.00 0.02 0.02 80 1011.3
20260510002521 68 189 1.0 3.0 0.00 0.02 0.02 78 1011.2
20260510002016 69 190 1.0 2.0 0.00 0.02 0.02 77 1011.2
20260510001516 69 192 2.0 3.0 0.00 0.02 0.02 77 1011.1
20260510001016 69 269 0.0 2.0 0.00 0.02 0.02 76 1011.0
20260510000516 69 194 1.0 4.0 0.00 0.02 0.02 76 1011.0
20260510000016 70 190 0.0 3.0 0.00 0.02 0.02 75 1010.9
20260509235516 70 186 1.0 4.0 0.00 0.02 0.02 75 1011.0
20260509235016 70 188 2.0 4.0 0.00 0.02 0.02 74 1011.0
20260509234516 70 199 1.0 6.0 0.00 0.02 0.02 74 1011.0
20260509234016 70 202 1.0 3.0 0.00 0.02 0.02 74 1010.9
20260509233516 71 229 1.0 5.0 0.00 0.02 0.02 73 1010.8
20260509233037 71 199 1.0 6.0 0.00 0.02 0.02 73 1010.8
20260509232516 71 206 1.0 3.0 0.00 0.02 0.02 73 1010.8
20260509232016 71 182 3.0 7.0 0.00 0.02 0.02 72 1010.8
20260509231517 71 188 2.0 7.0 0.00 0.02 0.02 72 1010.9
20260509231017 72 193 3.0 8.0 0.00 0.02 0.02 71 1010.8
20260509230556 72 189 2.0 5.0 0.00 0.02 0.02 71 1010.8
20260509230017 72 183 3.0 6.0 0.00 0.02 0.02 70 1010.7
20260509225517 72 183 3.0 10.0 0.00 0.02 0.02 70 1010.7